Location: ???????
(55.8930°N, 38.0586°E)
Time: 02:34:02
(UTC+00:00)

Cosmos 972 Rocket - Pass Details

Date: 14 April 2024
Orbit: 713 x 1150 km, 75.8° (Epoch: 28 May)

Event Time Altitude Azimuth Distance (km) Brightness Sun altitude
Exits shadow 00:08:05 27° 210° (SSW) 1,516 4.9 -16.7°
Maximum altitude 00:11:07 81° 296° (WNW) 796 4.0 -16.4°
Drops below altitude 10° 00:16:12 10° 24° (NNE) 2,258 7.6 -15.9°
Sets 00:18:28 0° 25° (NNE) 3,158 8.6 -15.7°
